TimeCDT,TemperatureF,Dew PointF,Humidity,Sea Level PressureIn,VisibilityMPH,Wind Direction,Wind SpeedMPH,Gust SpeedMPH,PrecipitationIn,Events,Conditions,WindDirDegrees,DateUTC
12:15 AM,51.8,50.9,97,29.97,10.0,Calm,Calm,-,N/A,,Clear,0,2013-08-01 05:15:00
12:35 AM,50.4,49.8,98,29.97,10.0,Calm,Calm,-,N/A,,Clear,0,2013-08-01 05:35:00
12:55 AM,51.6,51.1,98,29.97,10.0,Calm,Calm,-,N/A,,Clear,0,2013-08-01 05:55:00
1:15 AM,51.6,50.9,97,29.97,10.0,Calm,Calm,-,N/A,,Clear,0,2013-08-01 06:15:00
1:35 AM,50.4,49.5,97,29.97,10.0,Calm,Calm,-,N/A,,Clear,0,2013-08-01 06:35:00
1:55 AM,49.5,48.4,96,29.96,10.0,Calm,Calm,-,N/A,,Clear,0,2013-08-01 06:55:00
2:15 AM,49.3,48.4,97,29.96,10.0,Calm,Calm,-,N/A,,Clear,0,2013-08-01 07:15:00
2:35 AM,48.9,47.8,96,29.96,10.0,Calm,Calm,-,N/A,,Clear,0,2013-08-01 07:35:00
2:55 AM,50.0,48.2,94,29.97,10.0,Calm,Calm,-,N/A,,Clear,0,2013-08-01 07:55:00
3:15 AM,48.6,47.7,97,29.97,10.0,Calm,Calm,-,N/A,,Clear,0,2013-08-01 08:15:00
3:35 AM,48.9,48.0,97,29.96,10.0,Calm,Calm,-,N/A,,Clear,0,2013-08-01 08:35:00
3:55 AM,49.3,47.8,95,29.96,10.0,Calm,Calm,-,N/A,,Clear,0,2013-08-01 08:55:00
4:15 AM,49.1,48.0,96,29.97,10.0,WSW,3.5,-,N/A,,Clear,240,2013-08-01 09:15:00
4:35 AM,46.9,46.4,98,29.97,10.0,West,4.6,-,N/A,,Clear,270,2013-08-01 09:35:00
4:55 AM,50.4,49.1,95,29.97,10.0,Calm,Calm,-,N/A,,Clear,0,2013-08-01 09:55:00
5:15 AM,50.0,48.6,95,29.97,10.0,Calm,Calm,-,N/A,,Clear,0,2013-08-01 10:15:00
5:35 AM,49.3,47.8,95,29.97,10.0,Calm,Calm,-,N/A,,Clear,0,2013-08-01 10:35:00
5:55 AM,49.3,48.2,96,29.98,10.0,Calm,Calm,-,N/A,,Clear,0,2013-08-01 10:55:00
6:15 AM,49.5,48.4,96,29.98,10.0,West,4.6,-,N/A,,Clear,280,2013-08-01 11:15:00
6:35 AM,50.4,49.1,95,29.98,10.0,West,3.5,-,N/A,,Clear,280,2013-08-01 11:35:00
6:55 AM,52.2,50.2,93,29.98,10.0,West,4.6,-,N/A,,Clear,280,2013-08-01 11:55:00
7:15 AM,52.0,50.0,93,29.98,10.0,WNW,5.8,-,N/A,,Clear,290,2013-08-01 12:15:00
7:35 AM,54.0,51.1,90,29.98,10.0,WNW,5.8,-,N/A,,Clear,290,2013-08-01 12:35:00
7:55 AM,55.9,51.8,86,29.98,10.0,NW,6.9,-,N/A,,Clear,310,2013-08-01 12:55:00
8:15 AM,57.7,52.9,84,29.98,10.0,WNW,9.2,-,N/A,,Clear,300,2013-08-01 13:15:00
8:35 AM,59.4,52.7,79,29.98,10.0,NW,6.9,-,N/A,,Scattered Clouds,310,2013-08-01 13:35:00
8:55 AM,61.3,54.1,77,29.98,10.0,WNW,8.1,-,N/A,,Scattered Clouds,300,2013-08-01 13:55:00
9:15 AM,62.6,54.0,73,29.98,10.0,WNW,8.1,-,N/A,,Clear,300,2013-08-01 14:15:00
9:35 AM,63.9,53.4,69,29.98,10.0,WNW,11.5,-,N/A,,Clear,290,2013-08-01 14:35:00
9:55 AM,65.5,53.8,66,29.98,10.0,WNW,9.2,-,N/A,,Clear,290,2013-08-01 14:55:00
10:15 AM,66.0,54.0,65,29.98,10.0,NW,8.1,-,N/A,,Scattered Clouds,310,2013-08-01 15:15:00
10:35 AM,66.7,52.5,60,29.98,10.0,NW,10.4,18.4,N/A,,Scattered Clouds,310,2013-08-01 15:35:00
10:55 AM,66.9,52.7,60,29.98,10.0,West,11.5,17.3,N/A,,Mostly Cloudy,280,2013-08-01 15:55:00
11:15 AM,68.9,54.0,59,29.98,10.0,NNW,10.4,16.1,N/A,,Mostly Cloudy,330,2013-08-01 16:15:00
11:35 AM,69.3,52.7,56,29.98,10.0,WNW,13.8,18.4,N/A,,Mostly Cloudy,300,2013-08-01 16:35:00
11:55 AM,66.6,51.8,59,29.98,10.0,WNW,9.2,-,N/A,,Mostly Cloudy,300,2013-08-01 16:55:00
12:15 PM,66.4,52.2,60,29.98,10.0,NW,9.2,-,N/A,,Overcast,320,2013-08-01 17:15:00
12:35 PM,65.7,53.6,65,29.98,10.0,WNW,5.8,-,N/A,,Overcast,300,2013-08-01 17:35:00
12:55 PM,65.3,53.2,65,29.98,10.0,WNW,8.1,-,N/A,,Overcast,290,2013-08-01 17:55:00
1:15 PM,67.1,53.8,62,29.97,10.0,West,8.1,-,N/A,,Overcast,270,2013-08-01 18:15:00
1:35 PM,70.7,55.8,59,29.97,10.0,WNW,6.9,-,N/A,,Mostly Cloudy,290,2013-08-01 18:35:00
1:55 PM,68.9,53.1,57,29.97,10.0,West,6.9,-,N/A,,Overcast,280,2013-08-01 18:55:00
2:15 PM,66.7,53.1,61,29.97,10.0,NW,6.9,-,N/A,,Overcast,310,2013-08-01 19:15:00
2:35 PM,68.2,57.4,68,29.97,10.0,North,4.6,-,N/A,,Overcast,10,2013-08-01 19:35:00
2:55 PM,72.0,54.3,54,29.96,10.0,WNW,10.4,-,N/A,,Mostly Cloudy,300,2013-08-01 19:55:00
3:15 PM,71.8,52.3,50,29.95,10.0,NW,8.1,16.1,N/A,,Mostly Cloudy,320,2013-08-01 20:15:00
3:35 PM,70.7,54.0,55,29.95,10.0,NW,6.9,-,N/A,,Scattered Clouds,310,2013-08-01 20:35:00
3:55 PM,70.0,52.3,53,29.95,7.0,NW,6.9,-,N/A,,Scattered Clouds,310,2013-08-01 20:55:00
4:15 PM,71.1,53.1,53,29.94,10.0,NW,9.2,-,N/A,,Scattered Clouds,320,2013-08-01 21:15:00
4:35 PM,72.0,52.9,51,29.94,10.0,NW,11.5,16.1,N/A,,Clear,310,2013-08-01 21:35:00
4:55 PM,72.5,50.7,46,29.94,10.0,WNW,9.2,18.4,N/A,,Scattered Clouds,300,2013-08-01 21:55:00
5:15 PM,72.5,51.4,47,29.93,10.0,West,11.5,17.3,N/A,,Scattered Clouds,280,2013-08-01 22:15:00
5:35 PM,71.6,51.4,49,29.93,10.0,NW,9.2,-,N/A,,Scattered Clouds,310,2013-08-01 22:35:00
5:55 PM,70.9,52.9,53,29.93,10.0,NW,6.9,-,N/A,,Clear,320,2013-08-01 22:55:00
6:15 PM,71.1,52.3,52,29.92,10.0,WNW,6.9,-,N/A,,Clear,290,2013-08-01 23:15:00
6:35 PM,70.3,51.4,51,29.92,10.0,WNW,11.5,17.3,N/A,,Clear,290,2013-08-01 23:35:00
6:55 PM,69.8,52.0,53,29.92,10.0,WNW,6.9,-,N/A,,Clear,290,2013-08-01 23:55:00
7:15 PM,68.5,52.2,56,29.92,10.0,NW,4.6,-,N/A,,Clear,310,2013-08-02 00:15:00
7:35 PM,66.9,54.3,64,29.93,10.0,WNW,4.6,-,N/A,,Clear,290,2013-08-02 00:35:00
7:55 PM,64.6,54.3,69,29.92,10.0,West,3.5,-,N/A,,Scattered Clouds,270,2013-08-02 00:55:00
8:15 PM,62.2,53.4,73,29.92,10.0,West,3.5,-,N/A,,Scattered Clouds,270,2013-08-02 01:15:00
8:35 PM,60.3,54.0,80,29.93,10.0,West,3.5,-,N/A,,Clear,270,2013-08-02 01:35:00
8:55 PM,60.8,52.7,75,29.93,10.0,Calm,Calm,-,N/A,,Scattered Clouds,0,2013-08-02 01:55:00
9:15 PM,58.3,53.8,85,29.93,10.0,Calm,Calm,-,N/A,,Mostly Cloudy,0,2013-08-02 02:15:00
9:35 PM,58.1,54.3,87,29.93,10.0,Calm,Calm,-,N/A,,Mostly Cloudy,0,2013-08-02 02:35:00
9:55 PM,56.1,53.6,91,29.93,10.0,Calm,Calm,-,N/A,,Clear,0,2013-08-02 02:55:00
10:15 PM,55.8,53.1,91,29.92,10.0,Calm,Calm,-,N/A,,Scattered Clouds,0,2013-08-02 03:15:00
10:35 PM,56.5,52.7,87,29.92,10.0,Calm,Calm,-,N/A,,Scattered Clouds,0,2013-08-02 03:35:00
10:55 PM,55.2,52.2,89,29.91,10.0,SSW,3.5,-,N/A,,Clear,200,2013-08-02 03:55:00
11:15 PM,53.6,51.4,92,29.91,10.0,Calm,Calm,-,N/A,,Clear,0,2013-08-02 04:15:00
11:35 PM,53.4,50.7,91,29.90,10.0,SSW,3.5,-,N/A,,Clear,210,2013-08-02 04:35:00
11:55 PM,53.2,50.2,89,29.90,10.0,SW,4.6,-,N/A,,Clear,220,2013-08-02 04:55:00